TimeCDT,TemperatureF,Dew PointF,Humidity,Sea Level PressureIn,VisibilityMPH,Wind Direction,Wind SpeedMPH,Gust SpeedMPH,PrecipitationIn,Events,Conditions,WindDirDegrees,DateUTC
12:15 AM,41.9,36.1,80,30.37,10.0,Calm,Calm,-,N/A,,Clear,0,2013-03-27 05:15:00
12:35 AM,41.7,36.5,82,30.37,10.0,Calm,Calm,-,N/A,,Clear,0,2013-03-27 05:35:00
12:55 AM,41.0,36.7,85,30.36,10.0,Calm,Calm,-,N/A,,Clear,0,2013-03-27 05:55:00
1:15 AM,39.7,36.1,87,30.35,10.0,Calm,Calm,-,N/A,,Clear,0,2013-03-27 06:15:00
1:35 AM,38.8,36.0,89,30.34,10.0,Calm,Calm,-,N/A,,Clear,0,2013-03-27 06:35:00
1:55 AM,39.2,36.7,91,30.33,10.0,Calm,Calm,-,N/A,,Clear,0,2013-03-27 06:55:00
2:15 AM,39.0,36.0,89,30.33,10.0,Calm,Calm,-,N/A,,Clear,0,2013-03-27 07:15:00
2:35 AM,38.1,36.5,94,30.33,10.0,Calm,Calm,-,N/A,,Clear,0,2013-03-27 07:35:00
2:55 AM,37.9,36.9,96,30.33,10.0,ENE,4.6,-,N/A,,Clear,70,2013-03-27 07:55:00
3:15 AM,36.3,35.4,97,30.32,10.0,ENE,4.6,-,N/A,,Clear,60,2013-03-27 08:15:00
3:35 AM,38.1,38.1,100,30.31,10.0,Calm,Calm,-,N/A,,Clear,0,2013-03-27 08:35:00
3:55 AM,39.2,39.2,100,30.31,10.0,Calm,Calm,-,N/A,,Clear,0,2013-03-27 08:55:00
4:15 AM,37.2,37.0,99,30.30,10.0,Calm,Calm,-,N/A,,Clear,0,2013-03-27 09:15:00
4:35 AM,36.5,36.5,100,30.30,10.0,Calm,Calm,-,N/A,,Clear,0,2013-03-27 09:35:00
4:55 AM,36.7,36.7,100,30.31,10.0,Calm,Calm,-,N/A,,Clear,0,2013-03-27 09:55:00
5:15 AM,36.7,36.7,100,30.31,10.0,Calm,Calm,-,N/A,,Clear,0,2013-03-27 10:15:00
5:35 AM,36.7,36.7,100,30.32,10.0,ENE,3.5,-,N/A,,Clear,70,2013-03-27 10:35:00
5:55 AM,36.1,36.1,100,30.32,10.0,ENE,3.5,-,N/A,,Clear,60,2013-03-27 10:55:00
6:15 AM,35.6,35.6,100,30.32,10.0,ENE,4.6,-,N/A,,Clear,60,2013-03-27 11:15:00
6:35 AM,36.0,36.0,100,30.32,10.0,East,6.9,-,N/A,,Clear,80,2013-03-27 11:35:00
6:55 AM,37.4,37.4,100,30.32,10.0,ENE,5.8,-,N/A,,Clear,60,2013-03-27 11:55:00
7:15 AM,38.1,36.5,94,30.33,10.0,ENE,5.8,-,N/A,,Clear,70,2013-03-27 12:15:00
7:35 AM,39.0,34.2,83,30.33,10.0,ENE,5.8,-,N/A,,Clear,60,2013-03-27 12:35:00
7:55 AM,41.0,35.1,79,30.34,10.0,ENE,5.8,-,N/A,,Clear,60,2013-03-27 12:55:00
8:15 AM,43.3,37.9,81,30.34,10.0,ENE,4.6,-,N/A,,Clear,60,2013-03-27 13:15:00
8:35 AM,46.8,40.5,79,30.34,10.0,ENE,3.5,-,N/A,,Clear,70,2013-03-27 13:35:00
8:55 AM,51.3,42.3,71,30.35,10.0,ENE,4.6,-,N/A,,Clear,60,2013-03-27 13:55:00
9:15 AM,55.6,43.0,63,30.36,10.0,East,5.8,-,N/A,,Clear,90,2013-03-27 14:15:00
9:35 AM,59.7,42.3,52,30.36,10.0,ESE,9.2,-,N/A,,Clear,110,2013-03-27 14:35:00
9:55 AM,62.1,40.8,46,30.36,10.0,SE,11.5,-,N/A,,Clear,130,2013-03-27 14:55:00
10:15 AM,63.7,39.7,41,30.37,10.0,ESE,11.5,-,N/A,,Clear,120,2013-03-27 15:15:00
10:35 AM,64.8,39.2,39,30.36,10.0,East,12.7,17.3,N/A,,Clear,90,2013-03-27 15:35:00
10:55 AM,66.0,40.5,39,30.35,10.0,ESE,12.7,17.3,N/A,,Clear,110,2013-03-27 15:55:00
11:15 AM,67.1,40.5,38,30.35,10.0,ESE,13.8,-,N/A,,Clear,110,2013-03-27 16:15:00
11:35 AM,67.5,40.1,37,30.35,10.0,ESE,12.7,17.3,N/A,,Clear,120,2013-03-27 16:35:00
11:55 AM,67.8,38.8,35,30.35,10.0,SE,16.1,19.6,N/A,,Clear,140,2013-03-27 16:55:00
12:15 PM,68.4,39.0,34,30.35,10.0,SE,13.8,20.7,N/A,,Clear,130,2013-03-27 17:15:00
12:35 PM,69.1,40.5,35,30.34,10.0,SE,15.0,21.9,N/A,,Clear,130,2013-03-27 17:35:00
12:55 PM,68.9,40.3,35,30.34,10.0,ESE,12.7,19.6,N/A,,Clear,110,2013-03-27 17:55:00
1:15 PM,69.6,41.9,37,30.33,10.0,SE,13.8,19.6,N/A,,Clear,130,2013-03-27 18:15:00
1:35 PM,70.2,43.2,38,30.32,10.0,ESE,12.7,18.4,N/A,,Clear,120,2013-03-27 18:35:00
1:55 PM,69.8,43.2,38,30.32,10.0,ESE,16.1,21.9,N/A,,Clear,110,2013-03-27 18:55:00
2:15 PM,69.8,43.9,39,30.32,10.0,SE,11.5,18.4,N/A,,Clear,130,2013-03-27 19:15:00
2:35 PM,70.5,44.6,39,30.31,10.0,SE,12.7,21.9,N/A,,Clear,140,2013-03-27 19:35:00
2:55 PM,70.5,45.0,40,30.30,10.0,SE,13.8,-,N/A,,Scattered Clouds,130,2013-03-27 19:55:00
3:15 PM,69.6,45.1,41,30.28,10.0,ESE,13.8,-,N/A,,Scattered Clouds,120,2013-03-27 20:15:00
3:35 PM,69.8,45.5,42,30.27,10.0,ESE,12.7,19.6,N/A,,Clear,120,2013-03-27 20:35:00
3:55 PM,69.8,45.7,42,30.25,10.0,SE,13.8,21.9,N/A,,Clear,130,2013-03-27 20:55:00
4:15 PM,69.6,45.9,43,30.25,10.0,SE,16.1,-,N/A,,Clear,130,2013-03-27 21:15:00
4:35 PM,68.7,46.2,44,30.25,10.0,SE,13.8,-,N/A,,Clear,130,2013-03-27 21:35:00
4:55 PM,68.9,46.8,45,30.24,10.0,SE,13.8,18.4,N/A,,Clear,130,2013-03-27 21:55:00
5:15 PM,68.5,47.1,46,30.23,10.0,ESE,13.8,19.6,N/A,,Clear,120,2013-03-27 22:15:00
5:35 PM,66.9,47.3,49,30.24,10.0,ESE,13.8,-,N/A,,Scattered Clouds,120,2013-03-27 22:35:00
5:55 PM,65.3,47.7,53,30.23,10.0,SE,12.7,18.4,N/A,,Overcast,140,2013-03-27 22:55:00
6:15 PM,64.8,47.8,54,30.23,10.0,SE,12.7,18.4,N/A,,Overcast,140,2013-03-27 23:15:00
6:35 PM,64.2,48.2,56,30.24,10.0,ESE,12.7,-,N/A,,Overcast,120,2013-03-27 23:35:00
6:55 PM,63.5,48.7,59,30.24,10.0,SE,10.4,-,N/A,,Overcast,140,2013-03-27 23:55:00
7:15 PM,62.8,49.3,61,30.24,10.0,SE,13.8,17.3,N/A,,Overcast,130,2013-03-28 00:15:00
7:35 PM,62.4,49.5,63,30.24,10.0,SE,12.7,-,N/A,,Overcast,130,2013-03-28 00:35:00
7:55 PM,62.1,49.6,64,30.24,10.0,SE,9.2,-,N/A,,Overcast,130,2013-03-28 00:55:00
8:15 PM,61.7,49.8,65,30.24,10.0,ESE,9.2,-,N/A,,Overcast,120,2013-03-28 01:15:00
8:35 PM,61.7,50.2,66,30.24,10.0,ESE,5.8,-,N/A,,Overcast,110,2013-03-28 01:35:00
8:55 PM,61.3,50.4,67,30.24,10.0,ESE,5.8,-,N/A,,Overcast,120,2013-03-28 01:55:00
9:15 PM,61.2,51.1,69,30.24,10.0,ESE,4.6,-,N/A,,Overcast,110,2013-03-28 02:15:00
9:35 PM,61.2,51.6,71,30.25,10.0,ESE,4.6,-,N/A,,Overcast,120,2013-03-28 02:35:00
9:55 PM,61.2,52.0,72,30.25,10.0,ESE,4.6,-,N/A,,Overcast,120,2013-03-28 02:55:00
10:15 PM,61.7,52.5,72,30.25,10.0,SE,4.6,-,N/A,,Overcast,130,2013-03-28 03:15:00
10:35 PM,61.7,52.9,73,30.26,10.0,ESE,4.6,-,N/A,,Overcast,110,2013-03-28 03:35:00
10:55 PM,61.9,53.1,73,30.26,10.0,ESE,4.6,-,N/A,,Overcast,110,2013-03-28 03:55:00
11:15 PM,61.9,53.2,73,30.25,10.0,ESE,4.6,-,N/A,,Overcast,120,2013-03-28 04:15:00
11:35 PM,61.9,53.4,74,30.25,10.0,ESE,4.6,-,N/A,,Overcast,120,2013-03-28 04:35:00
11:55 PM,61.9,53.6,74,30.24,10.0,SE,4.6,-,N/A,,Overcast,130,2013-03-28 04:55:00